SDM6593 ULLI-UWKD

Flight info

Callsign SDM6593
Flight time N/A
Altitude 35000
Route SUGIN T873 NIRGI T73 DESUD P164 GAKLU N869 RANTO T540 POGAS T747 OLATU T784 ADMUL L94 UNORO T788 KOROM
Aircraft A319/M-SDE3FGHIRWY/LB1

Departure

Time 2026-05-05 13:09
Airport Pulkovo Airport (ULLI)

Arrival

Time N/A
Airport Kazan International Airport (UWKD)
Time Latitude Longitude Altitude Speed Heading
2026-05-05 12:49 59.79810 30.26293 87 ft 0 kts 286°
2026-05-05 13:03 59.79811 30.26291 86 ft 0 kts 286°
2026-05-05 13:04 59.79813 30.26273 86 ft 2 kts 285°
2026-05-05 13:04 59.79815 30.26260 86 ft 2 kts 285°
2026-05-05 13:04 59.79823 30.26204 86 ft 6 kts 284°
2026-05-05 13:04 59.79796 30.26138 86 ft 8 kts 197°
2026-05-05 13:05 59.79732 30.26097 86 ft 10 kts 197°
2026-05-05 13:05 59.79651 30.26033 86 ft 13 kts 208°
2026-05-05 13:05 59.79576 30.25987 86 ft 9 kts 175°
2026-05-05 13:05 59.79539 30.26091 86 ft 10 kts 106°
2026-05-05 13:06 59.79522 30.26200 86 ft 5 kts 106°
2026-05-05 13:06 59.79509 30.26288 86 ft 7 kts 106°
2026-05-05 13:06 59.79492 30.26393 86 ft 8 kts 117°
2026-05-05 13:06 59.79450 30.26424 86 ft 0 kts 198°
2026-05-05 13:07 59.79440 30.26417 86 ft 3 kts 199°
2026-05-05 13:07 59.79410 30.26398 86 ft 5 kts 195°
2026-05-05 13:07 59.79367 30.26373 86 ft 7 kts 196°
2026-05-05 13:08 59.79326 30.26313 86 ft 8 kts 263°
2026-05-05 13:08 59.79344 30.26191 86 ft 12 kts 287°
2026-05-05 13:08 59.79428 30.25624 87 ft 79 kts 286°
2026-05-05 13:08 59.79643 30.24152 90 ft 142 kts 283°
2026-05-05 13:09 59.79916 30.22290 813 ft 134 kts 280°
2026-05-05 13:09 59.80147 30.20622 1611 ft 125 kts 285°
2026-05-05 13:09 59.80377 30.18967 2214 ft 127 kts 282°
2026-05-05 13:09 59.80652 30.17180 2559 ft 143 kts 281°
2026-05-05 13:10 59.80953 30.15167 2931 ft 160 kts 281°
2026-05-05 13:10 59.81282 30.12946 3328 ft 176 kts 281°
2026-05-05 13:10 59.81641 30.10454 3843 ft 190 kts 284°
2026-05-05 13:10 59.82034 30.07829 4300 ft 207 kts 284°
2026-05-05 13:11 59.82465 30.04941 4851 ft 224 kts 284°
2026-05-05 13:11 59.82832 30.01870 5696 ft 226 kts 272°
2026-05-05 13:11 59.82543 29.98780 6562 ft 228 kts 245°
2026-05-05 13:11 59.81538 29.96329 7380 ft 234 kts 218°
2026-05-05 13:12 59.80029 29.94994 8192 ft 241 kts 201°
2026-05-05 13:12 59.78381 29.94036 9035 ft 243 kts 200°
2026-05-05 13:12 59.76727 29.93140 9825 ft 247 kts 195°
2026-05-05 13:12 59.74955 29.93163 10571 ft 260 kts 170°
2026-05-05 13:13 59.73301 29.94840 11305 ft 274 kts 143°
2026-05-05 13:13 59.72124 29.98066 11732 ft 300 kts 115°
2026-05-05 13:13 59.71468 30.02235 12122 ft 320 kts 108°
2026-05-05 13:13 59.70878 30.06703 12467 ft 338 kts 107°
2026-05-05 13:14 59.70250 30.11418 12792 ft 357 kts 106°
2026-05-05 13:14 59.69730 30.16450 13272 ft 371 kts 101°
2026-05-05 13:14 59.69466 30.21626 14009 ft 375 kts 95°
2026-05-05 13:14 59.69367 30.26899 14737 ft 379 kts 92°
2026-05-05 13:15 59.69234 30.32125 15401 ft 382 kts 96°
2026-05-05 13:15 59.68900 30.37463 16061 ft 386 kts 101°
2026-05-05 13:15 59.68385 30.42774 16702 ft 389 kts 103°
2026-05-05 13:15 59.67808 30.48194 17331 ft 393 kts 103°
2026-05-05 13:16 59.67233 30.53508 17925 ft 396 kts 103°
2026-05-05 13:16 59.66645 30.58949 18515 ft 400 kts 102°
2026-05-05 13:16 59.66058 30.64381 19085 ft 403 kts 102°
2026-05-05 13:16 59.65483 30.69935 19642 ft 407 kts 101°
2026-05-05 13:17 59.65002 30.75532 20185 ft 410 kts 100°
2026-05-05 13:17 59.64530 30.81246 20702 ft 414 kts 99°
2026-05-05 13:17 59.64055 30.87025 21201 ft 417 kts 99°
2026-05-05 13:17 59.63582 30.92739 21696 ft 420 kts 99°
2026-05-05 13:18 59.63097 30.98551 22186 ft 423 kts 99°
2026-05-05 13:18 59.62606 31.04410 22658 ft 426 kts 99°
2026-05-05 13:18 59.62116 31.10208 23102 ft 429 kts 99°
2026-05-05 13:18 59.61617 31.16093 23538 ft 432 kts 99°
2026-05-05 13:19 59.61111 31.22010 23961 ft 435 kts 99°
2026-05-05 13:19 59.60593 31.28029 24380 ft 438 kts 99°
2026-05-05 13:19 59.60076 31.33997 24788 ft 441 kts 99°
2026-05-05 13:19 59.59548 31.40063 25205 ft 443 kts 99°
2026-05-05 13:20 59.59018 31.46117 25623 ft 444 kts 99°
2026-05-05 13:20 59.58483 31.52197 26000 ft 447 kts 99°
2026-05-05 13:20 59.57946 31.58273 26355 ft 449 kts 99°
2026-05-05 13:20 59.57402 31.64394 26706 ft 452 kts 99°
2026-05-05 13:21 59.56853 31.70546 27045 ft 454 kts 100°
2026-05-05 13:21 59.56296 31.76762 27378 ft 456 kts 100°
2026-05-05 13:21 59.55730 31.83045 27704 ft 458 kts 100°
2026-05-05 13:21 59.55161 31.89311 28020 ft 461 kts 100°
2026-05-05 13:22 59.54591 31.95523 28325 ft 463 kts 100°
2026-05-05 13:22 59.53973 32.01815 28619 ft 465 kts 104°
2026-05-05 13:22 59.52952 32.07861 28895 ft 466 kts 114°
2026-05-05 13:22 59.51405 32.13541 29179 ft 466 kts 125°
2026-05-05 13:23 59.49422 32.18528 29456 ft 465 kts 135°
2026-05-05 13:23 59.47149 32.23081 29798 ft 464 kts 137°
2026-05-05 13:23 59.44832 32.27514 30167 ft 463 kts 138°
2026-05-05 13:23 59.42488 32.31978 30524 ft 463 kts 137°
2026-05-05 13:24 59.40174 32.36405 30865 ft 462 kts 137°
2026-05-05 13:24 59.37881 32.40815 31198 ft 462 kts 137°
2026-05-05 13:24 59.35564 32.45284 31529 ft 461 kts 137°
2026-05-05 13:24 59.33264 32.49723 31850 ft 461 kts 137°
2026-05-05 13:25 59.30984 32.54122 32160 ft 460 kts 137°
2026-05-05 13:25 59.28708 32.58509 32461 ft 460 kts 137°
2026-05-05 13:25 59.26442 32.62870 32753 ft 459 kts 137°
2026-05-05 13:25 59.24168 32.67240 33038 ft 458 kts 138°
2026-05-05 13:26 59.21900 32.71603 33314 ft 458 kts 138°
2026-05-05 13:26 59.19609 32.76000 33584 ft 457 kts 138°
2026-05-05 13:26 59.17343 32.80333 33841 ft 457 kts 138°
2026-05-05 13:26 59.15084 32.84643 34088 ft 456 kts 138°
2026-05-05 13:27 59.12774 32.89038 34335 ft 456 kts 138°
2026-05-05 13:27 59.10501 32.93356 34573 ft 455 kts 138°
2026-05-05 13:27 59.08248 32.97626 34698 ft 456 kts 138°
2026-05-05 13:27 59.05946 33.01980 34706 ft 461 kts 138°
2026-05-05 13:28 59.01310 33.10719 34709 ft 466 kts 139°
2026-05-05 13:28 58.96633 33.19504 34707 ft 467 kts 139°
2026-05-05 13:29 58.91980 33.28199 34689 ft 467 kts 139°
2026-05-05 13:29 58.87305 33.36868 34660 ft 468 kts 139°
2026-05-05 13:30 58.82582 33.45565 34632 ft 468 kts 139°
2026-05-05 13:30 58.77873 33.54236 34617 ft 469 kts 139°
2026-05-05 13:31 58.73188 33.62848 34610 ft 469 kts 139°
2026-05-05 13:31 58.68523 33.71413 34607 ft 468 kts 140°
2026-05-05 13:32 58.63811 33.80036 34605 ft 468 kts 140°
2026-05-05 13:32 58.59077 33.88654 34604 ft 468 kts 140°
2026-05-05 13:33 58.54373 33.97174 34604 ft 468 kts 140°
2026-05-05 13:33 58.49662 34.05672 34604 ft 468 kts 140°
2026-05-05 13:34 58.44955 34.14131 34604 ft 468 kts 140°
2026-05-05 13:34 58.40217 34.22613 34604 ft 468 kts 140°
2026-05-05 13:35 58.35479 34.31065 34604 ft 468 kts 140°
2026-05-05 13:35 58.30733 34.39501 34607 ft 468 kts 140°
2026-05-05 13:36 58.25970 34.47939 34627 ft 469 kts 140°
2026-05-05 13:36 58.21218 34.56314 34672 ft 469 kts 140°
2026-05-05 13:37 58.16257 34.64338 34730 ft 468 kts 143°
2026-05-05 13:37 58.11304 34.72194 34773 ft 467 kts 143°
2026-05-05 13:38 58.06304 34.80104 34807 ft 467 kts 143°
2026-05-05 13:38 58.01333 34.87919 34828 ft 468 kts 143°
2026-05-05 13:39 57.96337 34.95741 34839 ft 469 kts 142°
2026-05-05 13:39 57.91417 35.03421 34845 ft 469 kts 142°
2026-05-05 13:40 57.86490 35.11070 34848 ft 469 kts 142°
2026-05-05 13:40 57.81493 35.18790 34849 ft 470 kts 142°
2026-05-05 13:41 57.76437 35.26596 34850 ft 470 kts 142°
2026-05-05 13:41 57.71418 35.34325 34848 ft 469 kts 142°
2026-05-05 13:42 57.66439 35.42038 34848 ft 470 kts 140°
2026-05-05 13:42 57.61936 35.50936 34849 ft 472 kts 128°
2026-05-05 13:43 57.58431 35.61189 34849 ft 472 kts 117°
2026-05-05 13:43 57.55973 35.72291 34850 ft 472 kts 110°
2026-05-05 13:44 57.53780 35.83839 34848 ft 472 kts 110°
2026-05-05 13:44 57.51534 35.95358 34849 ft 472 kts 110°
2026-05-05 13:45 57.49278 36.06654 34850 ft 472 kts 110°
2026-05-05 13:45 57.46983 36.18065 34850 ft 473 kts 110°
2026-05-05 13:46 57.44668 36.29540 34850 ft 472 kts 110°
2026-05-05 13:46 57.42362 36.40929 34850 ft 472 kts 110°
2026-05-05 13:47 57.40046 36.52302 34851 ft 472 kts 110°
2026-05-05 13:47 57.37707 36.63722 34849 ft 472 kts 110°
2026-05-05 13:48 57.35393 36.74989 34850 ft 472 kts 111°
2026-05-05 13:48 57.33054 36.86305 34850 ft 472 kts 111°
2026-05-05 13:49 57.30687 36.97675 34848 ft 472 kts 111°
2026-05-05 13:49 57.28303 37.09030 34849 ft 471 kts 110°
2026-05-05 13:50 57.25933 37.20277 34850 ft 468 kts 109°
2026-05-05 13:50 57.23593 37.31367 34849 ft 467 kts 109°
2026-05-05 13:51 57.21225 37.42509 34850 ft 467 kts 109°
2026-05-05 13:51 57.19059 37.53765 34848 ft 465 kts 101°
2026-05-05 13:52 57.18306 37.65387 34846 ft 461 kts 86°
2026-05-05 13:52 57.19177 37.76897 34849 ft 456 kts 71°
2026-05-05 13:53 57.21297 37.87821 34850 ft 454 kts 65°
2026-05-05 13:53 57.23594 37.98642 34849 ft 455 kts 65°
2026-05-05 13:54 57.25831 38.09425 34851 ft 455 kts 66°
2026-05-05 13:54 57.28052 38.20308 34849 ft 454 kts 66°
2026-05-05 13:55 57.30284 38.31345 34851 ft 454 kts 66°
2026-05-05 13:55 57.32499 38.42410 34844 ft 454 kts 66°
2026-05-05 13:56 57.34681 38.53419 34828 ft 454 kts 66°
2026-05-05 13:56 57.36875 38.64541 34805 ft 454 kts 66°
2026-05-05 13:57 57.38979 38.75274 34788 ft 455 kts 67°
2026-05-05 13:57 57.41190 38.86612 34777 ft 455 kts 67°
2026-05-05 13:58 57.43298 38.97483 34775 ft 453 kts 66°
2026-05-05 13:58 57.45437 39.08596 34772 ft 449 kts 67°
2026-05-05 13:59 57.46857 39.20094 34770 ft 453 kts 79°
2026-05-05 13:59 57.47059 39.26105 34770 ft 456 kts 85°
2026-05-05 14:00 57.46405 39.37896 34769 ft 461 kts 98°
2026-05-05 14:00 57.45868 39.41845 34771 ft 463 kts 102°
2026-05-05 14:00 57.43648 39.55412 34770 ft 463 kts 103°
2026-05-05 14:01 57.41721 39.67041 34769 ft 463 kts 104°
2026-05-05 14:01 57.39822 39.78589 34770 ft 463 kts 103°
2026-05-05 14:02 57.37900 39.90230 34769 ft 463 kts 104°
2026-05-05 14:02 57.35546 40.01423 34768 ft 469 kts 117°
2026-05-05 14:03 57.31407 40.11099 34770 ft 474 kts 136°
2026-05-05 14:03 57.25879 40.17838 34770 ft 476 kts 155°
2026-05-05 14:04 57.19442 40.21731 34771 ft 477 kts 164°
2026-05-05 14:04 57.12996 40.25089 34770 ft 477 kts 163°
2026-05-05 14:05 57.06618 40.28701 34798 ft 476 kts 159°
2026-05-05 14:05 57.00679 40.33934 34826 ft 474 kts 147°
2026-05-05 14:06 56.95486 40.41160 34838 ft 471 kts 134°
2026-05-05 14:06 56.91066 40.49918 34845 ft 469 kts 128°
2026-05-05 14:07 56.86809 40.58919 34846 ft 469 kts 128°
2026-05-05 14:07 56.82738 40.67389 34849 ft 469 kts 129°